Flag for U.S.A. Weather past 2 weeks in Sunrise, Florida, U.S.A.

Now
78 °F

Clear.


Feels Like: 81 °F
Forecast: 78 / 87 °F
Wind: 3 mph from East

Location: Fort Lauderdale Executive Airport

Current Time: Jul 31, 2014 at 10:21:14 PM

Latest Report: Jul 31, 2014 at 9:53 PM


Visibility: 10 mi

Pressure: 30.01 "Hg

Humidity: 100%

Dew point: 78 °F

Location of SunriseLocation

Historic Weather in Sunrise — Graph

°F

Sunrise temperature yesterday

Maximum temperature yesterday: 91 °F (at 1:53 PM)
Minimum temperature yesterday: 75 °F (at 5:00 PM)
Average temperature yesterday: 82 °F

Past Weeks' High & Low Weather Summary

 TemperatureHumidityPressure
High96 °F (Jul 28, 4:53 PM)100% (Jul 22, 6:53 AM)30.14 "Hg (Jul 22, 6:53 AM)
Low75 °F (Jul 17, 1:53 PM)41% (Jul 28, 4:53 PM)29.95 "Hg (Jul 29, 4:53 PM)
Average83 °F80%30.04 "Hg
* Reported Jul 16 8:53 PM — Jul 31 8:53 PM, Sunrise, Weather by CustomWeather, © 2014

Note: Actual official high and low records may vary slightly from our data, if they occured in-between our weather recording intervals... More about our weather records

Advertising

Sunrise weather history for previous 24 hours

 ConditionsComfort  
Time TempWeatherWind HumidityBarometerVisibility
8:53 PM
Jul 31
78 °FPassing clouds.No wind96%30.00 "Hg10 mi
7:53 PM78 °FSunny.No wind100%29.99 "Hg10 mi
6:53 PM79 °FScattered clouds.10 mph94%29.99 "Hg10 mi
5:53 PM78 °FThunderstorms. Partly sunny.6 mph90%29.99 "Hg10 mi
4:53 PM77 °FThunderstorms. Broken clouds.7 mph96%29.98 "Hg3 mi
3:56 PM78 °FHeavy rain. Fog.7 mph93%29.99 "Hg1 mi
2:53 PM88 °FMore clouds than sun.10 mph63%29.97 "Hg10 mi
1:53 PM87 °FBroken clouds.6 mph75%29.99 "Hg10 mi
12:53 PM83 °FRain. Mostly cloudy.21 mph82%29.99 "Hg8 mi
11:53 AM89 °FBroken clouds.5 mph65%30.00 "Hg10 mi
10:53 AM88 °FScattered clouds.7 mph67%30.00 "Hg10 mi
9:53 AM85 °FScattered clouds.6 mph77%30.00 "Hg10 mi
8:53 AM81 °FScattered clouds.5 mph88%29.99 "Hg10 mi
7:53 AM79 °FScattered clouds.No wind90%29.98 "Hg10 mi
6:53 AM78 °FPassing clouds.3 mph90%29.98 "Hg10 mi
5:53 AM78 °FClear.No wind90%29.96 "Hg10 mi
4:53 AM78 °FClear.No wind90%29.96 "Hg10 mi
3:53 AM79 °FClear.5 mph90%29.96 "Hg10 mi
2:53 AM79 °FClear.3 mph97%29.97 "Hg10 mi
1:53 AM79 °FPassing clouds.No wind94%29.99 "Hg10 mi
12:53 AM79 °FPassing clouds.No wind94%29.99 "Hg10 mi
11:53 PM
Jul 30
78 °FOvercast.3 mph96%29.99 "Hg10 mi
10:53 PM78 °FClear.No wind96%29.99 "Hg10 mi
Weather by CustomWeather, © 2014

See weather overviewHow to use our weather pages